Location: Unspecified
(0.0000°N, 0.0000°E)
Time: 05:02:02
(UTC+00:00)

deb Midas III - Pass Details

Date: 13 March 2026
Orbit: 3314 x 3545 km, 91.1° (Epoch: 15 April)

Event Time Altitude Azimuth Distance (km) Brightness Sun altitude
Rises 02:40:17 0° 185° (S) 7,610 ? -52.2°
Reaches altitude 10° 02:44:41 10° 188° (S) 6,575 ? -51.1°
Enters shadow 02:52:30 32° 201° (SSW) 4,928 ? -49.2°
Exits shadow 03:17:32 15° 335° (NNW) 5,966 ? -42.9°
Drops below altitude 10° 03:19:35 10° 338° (NNW) 6,422 ? -42.4°
Sets 03:23:57 0° 343° (NNW) 7,425 ? -41.3°
